Valgardena — ICKG — position and weather

sailwx.info

Track history (hours):
 
Tides and Currents Weather Stations Pressure Air Temp Water Temp Dewpoint Dewpoint Depression Visibility Wind Speed Wind Dir Waves Ship Positions

Valgardena

Last reported at 2014-Oct-28 13:22 UTC. Time now 2014-Oct-30 18:18 UTC.
Position N 36°27' E 014°05'.

Length 184 m; draft 7.6 m.

Type: Ship. MMSI: 247243800.

Date/timePositionNaut miles runAvg speedWind from/ knotsBaromVisibWave heightAir tempDewpointWater temp
2014-Oct-28 13:22N 36°27' E 014°05'1113.4
2014-Oct-28 12:31N 36°34' E 013°54'1413.5
2014-Oct-28 11:29N 36°43' E 013°40'41513.0
2014-Oct-27 03:33N 37°29' E 005°02'2914.4
2014-Oct-27 01:34N 37°24' E 004°27'1413.8
2014-Oct-27 00:33N 37°23' E 004°09'2913.7
2014-Oct-26 22:25N 37°19' E 003°33'1213.8
2014-Oct-26 21:33N 37°17' E 003°18'1313.5
2014-Oct-26 20:33N 37°15' E 003°02'1513.4
2014-Oct-26 19:27N 37°13' E 002°43'1313.4
2014-Oct-26 18:28N 37°11' E 002°27'1313.8
2014-Oct-26 17:33N 37°08' E 002°11'1614.4
2014-Oct-26 16:28N 37°05' E 001°52'1213.5
2014-Oct-26 15:34N 37°02' E 001°37'1413.4
2014-Oct-26 14:32N 36°58' E 001°21'1413.8
2014-Oct-26 13:31N 36°54' E 001°04'1414.2
2014-Oct-26 12:33N 36°50' E 000°48'1413.9
2014-Oct-26 11:33N 36°46' E 000°31'1413.8
2014-Oct-26 10:33N 36°43' E 000°14'1313.3
2014-Oct-26 09:33N 36°40' W 000°02'1413.6
2014-Oct-26 08:33N 36°38' W 000°19'1413.4
2014-Oct-26 07:32N 36°36' W 000°35'22213.9
2014-Oct-25 15:31N 36°05' W 005°08'1212.4
2014-Oct-25 14:33N 36°06' W 005°23'5 4.5
2014-Oct-25 13:33N 36°10' W 005°24'0 0.0
2014-Oct-25 12:27N 36°10' W 005°24'0 0.0
2014-Oct-25 11:33N 36°10' W 005°24'0 0.1
2014-Oct-25 09:33N 36°11' W 005°24'0 0.1
2014-Oct-25 08:30N 36°11' W 005°24'0 0.0
2014-Oct-24 05:12N 36°11' W 005°24'1 0.7
2014-Oct-24 04:30N 36°10' W 005°23'0 0.0
2014-Oct-24 03:33N 36°10' W 005°23'0 0.0
2014-Oct-24 02:33N 36°10' W 005°23'0 0.0
2014-Oct-24 00:27N 36°10' W 005°23'0 0.0
2014-Oct-23 23:30N 36°10' W 005°23'0 0.0
2014-Oct-23 22:33N 36°10' W 005°23'4 3.8
2014-Oct-23 21:33N 36°06' W 005°23'6 6.4
2014-Oct-23 20:33N 36°04' W 005°15'3 3.4
2014-Oct-23 19:33N 36°03' W 005°20'6 6.1
2014-Oct-23 18:33N 36°05' W 005°12'64313.0
2014-Oct-21 17:17N 37°36' E 008°03'1013.2
2014-Oct-21 16:33N 37°37' E 008°15'1313.3
2014-Oct-21 15:34N 37°37' E 008°32'1313.0
2014-Oct-21 14:33N 37°37' E 008°48'1312.5
2014-Oct-21 13:31N 37°37' E 009°05'1212.5
2014-Oct-21 12:32N 37°38' E 009°20'1212.3
2014-Oct-21 11:33N 37°39' E 009°35'1212.3
2014-Oct-21 10:33N 37°39' E 009°51'1412.3
2014-Oct-21 09:22N 37°39' E 010°09'1012.1
2014-Oct-21 08:33N 37°39' E 010°22'16113.1
2014-Oct-20 20:15N 36°53' E 013°36'913.5
2014-Oct-20 19:33N 36°48' E 013°46'1313.2
2014-Oct-20 18:33N 36°41' E 013°60'1312.9
2014-Oct-20 17:33N 36°36' E 014°14'1312.8
2014-Oct-20 16:31N 36°31' E 014°29'40 4.2
2014-Oct-20 07:13N 36°28' E 015°18'  
Track history (hours):
 
Tides and Currents Weather Stations Pressure Air Temp Water Temp Dewpoint Dewpoint Depression Visibility Wind Speed Wind Dir Waves Ship Positions

Valgardena

Last reported at 2014-Oct-28 13:22 UTC. Time now 2014-Oct-30 18:18 UTC.
Position N 36°27' E 014°05'.

Length 184 m; draft 7.6 m.

Type: Ship. MMSI: 247243800.

Date/timePositionNaut miles runAvg speedWind from/ knotsBaromVisibWave heightAir tempDewpointWater temp
2014-Oct-28 13:22N 36°27' E 014°05'1113.4
2014-Oct-28 12:31N 36°34' E 013°54'1413.5
2014-Oct-28 11:29N 36°43' E 013°40'41513.0
2014-Oct-27 03:33N 37°29' E 005°02'2914.4
2014-Oct-27 01:34N 37°24' E 004°27'1413.8
2014-Oct-27 00:33N 37°23' E 004°09'2913.7
2014-Oct-26 22:25N 37°19' E 003°33'1213.8
2014-Oct-26 21:33N 37°17' E 003°18'1313.5
2014-Oct-26 20:33N 37°15' E 003°02'1513.4
2014-Oct-26 19:27N 37°13' E 002°43'1313.4
2014-Oct-26 18:28N 37°11' E 002°27'1313.8
2014-Oct-26 17:33N 37°08' E 002°11'1614.4
2014-Oct-26 16:28N 37°05' E 001°52'1213.5
2014-Oct-26 15:34N 37°02' E 001°37'1413.4
2014-Oct-26 14:32N 36°58' E 001°21'1413.8
2014-Oct-26 13:31N 36°54' E 001°04'1414.2
2014-Oct-26 12:33N 36°50' E 000°48'1413.9
2014-Oct-26 11:33N 36°46' E 000°31'1413.8
2014-Oct-26 10:33N 36°43' E 000°14'1313.3
2014-Oct-26 09:33N 36°40' W 000°02'1413.6
2014-Oct-26 08:33N 36°38' W 000°19'1413.4
2014-Oct-26 07:32N 36°36' W 000°35'22213.9
2014-Oct-25 15:31N 36°05' W 005°08'1212.4
2014-Oct-25 14:33N 36°06' W 005°23'5 4.5
2014-Oct-25 13:33N 36°10' W 005°24'0 0.0
2014-Oct-25 12:27N 36°10' W 005°24'0 0.0
2014-Oct-25 11:33N 36°10' W 005°24'0 0.1
2014-Oct-25 09:33N 36°11' W 005°24'0 0.1
2014-Oct-25 08:30N 36°11' W 005°24'0 0.0
2014-Oct-24 05:12N 36°11' W 005°24'1 0.7
2014-Oct-24 04:30N 36°10' W 005°23'0 0.0
2014-Oct-24 03:33N 36°10' W 005°23'0 0.0
2014-Oct-24 02:33N 36°10' W 005°23'0 0.0
2014-Oct-24 00:27N 36°10' W 005°23'0 0.0
2014-Oct-23 23:30N 36°10' W 005°23'0 0.0
2014-Oct-23 22:33N 36°10' W 005°23'4 3.8
2014-Oct-23 21:33N 36°06' W 005°23'6 6.4
2014-Oct-23 20:33N 36°04' W 005°15'3 3.4
2014-Oct-23 19:33N 36°03' W 005°20'6 6.1
2014-Oct-23 18:33N 36°05' W 005°12'64313.0
2014-Oct-21 17:17N 37°36' E 008°03'1013.2
2014-Oct-21 16:33N 37°37' E 008°15'1313.3
2014-Oct-21 15:34N 37°37' E 008°32'1313.0
2014-Oct-21 14:33N 37°37' E 008°48'1312.5
2014-Oct-21 13:31N 37°37' E 009°05'1212.5
2014-Oct-21 12:32N 37°38' E 009°20'1212.3
2014-Oct-21 11:33N 37°39' E 009°35'1212.3
2014-Oct-21 10:33N 37°39' E 009°51'1412.3
2014-Oct-21 09:22N 37°39' E 010°09'1012.1
2014-Oct-21 08:33N 37°39' E 010°22'16113.1
2014-Oct-20 20:15N 36°53' E 013°36'913.5
2014-Oct-20 19:33N 36°48' E 013°46'1313.2
2014-Oct-20 18:33N 36°41' E 013°60'1312.9
2014-Oct-20 17:33N 36°36' E 014°14'1312.8
2014-Oct-20 16:31N 36°31' E 014°29'40 4.2
2014-Oct-20 07:13N 36°28' E 015°18'  

Dump ship's entire track history